TimeEDT,TemperatureF,Dew PointF,Humidity,Sea Level PressureIn,VisibilityMPH,Wind Direction,Wind SpeedMPH,Gust SpeedMPH,PrecipitationIn,Events,Conditions,WindDirDegrees,DateUTC
12:00 AM,53.6,46.4,77,30.31,10.0,Calm,Calm,-,N/A,,Overcast,0,2013-05-01 04:00:00
12:20 AM,53.6,46.4,77,30.31,10.0,Calm,Calm,-,N/A,,Overcast,0,2013-05-01 04:20:00
12:40 AM,53.6,44.6,72,30.32,10.0,Calm,Calm,-,N/A,,Overcast,0,2013-05-01 04:40:00
1:00 AM,53.6,42.8,67,30.32,10.0,Calm,Calm,-,N/A,,Overcast,0,2013-05-01 05:00:00
1:20 AM,53.6,41.0,62,30.32,10.0,Calm,Calm,-,N/A,,Overcast,0,2013-05-01 05:20:00
1:40 AM,53.6,37.4,54,30.32,10.0,Calm,Calm,-,N/A,,Overcast,0,2013-05-01 05:40:00
2:00 AM,53.6,35.6,51,30.32,10.0,Calm,Calm,-,N/A,,Overcast,0,2013-05-01 06:00:00
2:20 AM,51.8,33.8,50,30.31,10.0,Calm,Calm,-,N/A,,Overcast,0,2013-05-01 06:20:00
2:40 AM,51.8,33.8,50,30.31,10.0,Calm,Calm,-,N/A,,Scattered Clouds,0,2013-05-01 06:40:00
3:00 AM,51.8,33.8,50,30.32,10.0,ENE,4.6,-,N/A,,Clear,60,2013-05-01 07:00:00
3:20 AM,50.0,35.6,58,30.32,10.0,Calm,Calm,-,N/A,,Clear,0,2013-05-01 07:20:00
3:40 AM,48.2,35.6,62,30.32,10.0,Calm,Calm,-,N/A,,Clear,0,2013-05-01 07:40:00
4:00 AM,48.2,35.6,62,30.32,10.0,Calm,Calm,-,N/A,,Clear,0,2013-05-01 08:00:00
4:20 AM,46.4,35.6,66,30.33,10.0,Calm,Calm,-,N/A,,Clear,0,2013-05-01 08:20:00
4:40 AM,46.4,33.8,62,30.33,10.0,Calm,Calm,-,N/A,,Clear,0,2013-05-01 08:40:00
5:00 AM,46.4,33.8,62,30.34,10.0,Calm,Calm,-,N/A,,Clear,0,2013-05-01 09:00:00
5:20 AM,46.4,33.8,62,30.33,10.0,Calm,Calm,-,N/A,,Clear,0,2013-05-01 09:20:00
5:40 AM,44.6,35.6,71,30.34,10.0,Calm,Calm,-,N/A,,Clear,0,2013-05-01 09:40:00
6:00 AM,44.6,35.6,71,30.34,10.0,Calm,Calm,-,N/A,,Clear,0,2013-05-01 10:00:00
6:20 AM,44.6,35.6,71,30.35,10.0,Calm,Calm,-,N/A,,Clear,0,2013-05-01 10:20:00
6:40 AM,42.8,37.4,81,30.36,10.0,Calm,Calm,-,N/A,,Clear,0,2013-05-01 10:40:00
7:00 AM,44.6,35.6,71,30.37,10.0,Calm,Calm,-,N/A,,Clear,0,2013-05-01 11:00:00
7:20 AM,46.4,35.6,66,30.37,10.0,Calm,Calm,-,N/A,,Clear,0,2013-05-01 11:20:00
7:40 AM,48.2,35.6,62,30.38,10.0,Calm,Calm,-,N/A,,Clear,0,2013-05-01 11:40:00
8:00 AM,51.8,35.6,54,30.38,10.0,Calm,Calm,-,N/A,,Clear,0,2013-05-01 12:00:00
8:20 AM,53.6,32.0,44,30.39,10.0,East,4.6,-,N/A,,Clear,80,2013-05-01 12:20:00
8:40 AM,55.4,30.2,38,30.39,10.0,East,5.8,-,N/A,,Clear,90,2013-05-01 12:40:00
9:00 AM,57.2,30.2,36,30.40,10.0,East,8.1,-,N/A,,Clear,80,2013-05-01 13:00:00
9:20 AM,57.2,28.4,33,30.40,10.0,East,5.8,-,N/A,,Clear,80,2013-05-01 13:20:00
9:40 AM,59.0,26.6,29,30.40,10.0,East,6.9,-,N/A,,Clear,100,2013-05-01 13:40:00
10:00 AM,60.8,26.6,27,30.40,10.0,ESE,6.9,-,N/A,,Clear,110,2013-05-01 14:00:00
10:20 AM,60.8,24.8,25,30.40,10.0,East,9.2,-,N/A,,Clear,100,2013-05-01 14:20:00
10:40 AM,62.6,24.8,24,30.41,10.0,ESE,10.4,16.1,N/A,,Clear,110,2013-05-01 14:40:00
11:00 AM,62.6,26.6,26,30.41,10.0,ESE,6.9,-,N/A,,Clear,110,2013-05-01 15:00:00
11:20 AM,64.4,21.2,19,30.41,10.0,ESE,6.9,-,N/A,,Clear,120,2013-05-01 15:20:00
11:40 AM,64.4,21.2,19,30.41,10.0,ESE,5.8,-,N/A,,Clear,110,2013-05-01 15:40:00
12:00 PM,64.4,26.6,24,30.40,10.0,East,8.1,-,N/A,,Clear,90,2013-05-01 16:00:00
12:20 PM,66.2,21.2,18,30.40,10.0,ENE,6.9,-,N/A,,Clear,70,2013-05-01 16:20:00
12:40 PM,66.2,21.2,18,30.40,10.0,SE,6.9,-,N/A,,Clear,140,2013-05-01 16:40:00
1:00 PM,66.2,24.8,21,30.40,10.0,Calm,Calm,-,N/A,,Clear,0,2013-05-01 17:00:00
1:20 PM,68.0,24.8,20,30.40,10.0,ESE,3.5,-,N/A,,Clear,120,2013-05-01 17:20:00
1:40 PM,69.8,21.2,16,30.39,10.0,East,8.1,-,N/A,,Clear,80,2013-05-01 17:40:00
2:00 PM,69.8,21.2,16,30.39,10.0,SSE,5.8,-,N/A,,Clear,150,2013-05-01 18:00:00
2:20 PM,69.8,26.6,20,30.39,10.0,Calm,Calm,-,N/A,,Clear,0,2013-05-01 18:20:00
2:40 PM,69.8,26.6,20,30.38,10.0,South,4.6,-,N/A,,Clear,170,2013-05-01 18:40:00
3:00 PM,71.6,26.6,19,30.38,10.0,SE,4.6,-,N/A,,Clear,130,2013-05-01 19:00:00
3:20 PM,71.6,24.8,17,30.38,10.0,SE,6.9,-,N/A,,Clear,140,2013-05-01 19:20:00
3:40 PM,71.6,21.2,15,30.38,10.0,SE,3.5,-,N/A,,Clear,130,2013-05-01 19:40:00
3:55 PM,69.8,26.6,20,30.38,10.0,Calm,Calm,-,N/A,,Clear,0,2013-05-01 19:55:00
4:20 PM,71.6,24.8,17,30.38,10.0,ESE,5.8,-,N/A,,Clear,120,2013-05-01 20:20:00
4:40 PM,73.4,21.2,14,30.38,10.0,ESE,9.2,16.1,N/A,,Clear,110,2013-05-01 20:40:00
5:00 PM,71.6,24.8,17,30.38,10.0,East,5.8,-,N/A,,Clear,100,2013-05-01 21:00:00
5:20 PM,73.4,21.2,14,30.39,10.0,SE,9.2,-,N/A,,Clear,140,2013-05-01 21:20:00
5:40 PM,71.6,19.4,14,30.39,10.0,SE,5.8,-,N/A,,Clear,130,2013-05-01 21:40:00
6:00 PM,71.6,24.8,17,30.39,10.0,ESE,4.6,-,N/A,,Clear,110,2013-05-01 22:00:00
6:20 PM,71.6,23.0,16,30.39,10.0,SE,4.6,-,N/A,,Clear,140,2013-05-01 22:20:00
6:40 PM,69.8,24.8,18,30.39,10.0,SE,8.1,-,N/A,,Clear,140,2013-05-01 22:40:00
7:00 PM,69.8,28.4,21,30.39,10.0,SE,5.8,-,N/A,,Clear,140,2013-05-01 23:00:00
7:20 PM,69.8,30.2,23,30.39,10.0,SE,5.8,-,N/A,,Clear,130,2013-05-01 23:20:00
7:40 PM,66.2,30.2,26,30.40,10.0,SE,3.5,-,N/A,,Clear,130,2013-05-01 23:40:00
8:00 PM,64.4,28.4,26,30.40,10.0,Calm,Calm,-,N/A,,Clear,0,2013-05-02 00:00:00
8:20 PM,64.4,30.2,28,30.40,10.0,ESE,3.5,-,N/A,,Clear,110,2013-05-02 00:20:00
8:40 PM,62.6,35.6,37,30.41,10.0,ESE,4.6,-,N/A,,Clear,120,2013-05-02 00:40:00
9:00 PM,60.8,42.8,52,30.42,10.0,SE,6.9,-,N/A,,Clear,130,2013-05-02 01:00:00
9:20 PM,59.0,44.6,59,30.42,10.0,SE,6.9,-,N/A,,Clear,130,2013-05-02 01:20:00
9:40 PM,57.2,44.6,63,30.43,10.0,SE,4.6,-,N/A,,Clear,130,2013-05-02 01:40:00
10:00 PM,57.2,44.6,63,30.44,10.0,SE,5.8,-,N/A,,Clear,130,2013-05-02 02:00:00
10:20 PM,55.4,44.6,67,30.44,10.0,ESE,4.6,-,N/A,,Clear,120,2013-05-02 02:20:00
10:40 PM,55.4,44.6,67,30.44,10.0,SE,5.8,-,N/A,,Clear,130,2013-05-02 02:40:00
11:00 PM,53.6,44.6,72,30.43,10.0,East,4.6,-,N/A,,Clear,100,2013-05-02 03:00:00
11:20 PM,53.6,44.6,72,30.43,10.0,ESE,5.8,-,N/A,,Clear,110,2013-05-02 03:20:00
11:40 PM,53.6,44.6,72,30.43,10.0,ESE,3.5,-,N/A,,Clear,110,2013-05-02 03:40:00